Regional Weather Roundup
Issued by NWS

Home | Current Version | Previous Version | Graphics & Text | Print | Product List | Glossary On
Versions: 1 2 3 4 5 6 7 8 9 10 11 12 13 14 15 16 17 18 19 20 21 22 23 24 25 26 27 28 29 30 31 32 33 34 35 36 37 38 39 40 41 42 43 44 45 46 47 48 49 50
000
ASUS43 KMPX 260710
RWRMN
WEATHER ROUNDUP FOR MINNESOTA
NATIONAL WEATHER SERVICE TWIN CITIES/CHANHASSEN MN
200 AM CDT FRI MAY 26 2017


NOTE: "FAIR" INDICATES FEW OR NO CLOUDS BELOW 12,000 FEET WITH NO
SIGNIFICANT WEATHER AND/OR OBSTRUCTIONS TO VISIBILITY. N/A MEANS
CURRENT SKY AND/OR WEATHER CONDITIONS ARE NOT AVAILABLE.

MNZ060>063-068>070-260800-
   Twin Cities Metro

CITY           SKY/WX    TMP DP  RH WIND       PRES   REMARKS
TWIN CITIES    CLOUDY    62  53  72 SE6       29.69S
ST PAUL        CLOUDY    60  56  86 S6        29.70F
CRYSTAL        CLOUDY    61  52  72 SE6       29.68S
BLAINE         PTCLDY    63  55  77 SE6       29.69S
LAKEVILLE      CLOUDY    55  55 100 E3        29.70S
EDEN PRAIRIE   PTCLDY    62  53  72 SE6       29.68S
SOUTH ST PAUL  CLOUDY    61  55  81 CALM      29.70S
LAKE ELMO      CLOUDY    59  55  88 SE3       29.71S
$$
MNZ001>005-007-008-013>017-022>024-027-028-260800-
   Northwest Minnesota

CITY           SKY/WX    TMP DP  RH WIND       PRES   REMARKS
BEMIDJI        CLOUDY    58  51  78 SE9       29.63S
HALLOCK        CLEAR     55  48  76 S10       29.54R
ROSEAU         PTCLDY    59  52  77 S14       29.57S
WARROAD        CLOUDY    59  52  77 S10       29.59S
THIEF RVR FALL MOCLDY    57  50  77 S8        29.59S
CROOKSTON      PTCLDY    54  48  82 S6        29.58S
FOSSTON        CLOUDY    57  50  77 S9        29.61S
DETROIT LAKES  CLOUDY    57  52  82 S6        29.63S
MOORHEAD       CLOUDY    59  54  82 S12       29.60S
PARK RAPIDS    LGT RAIN  60  50  69 SE12      29.64S
MAHNOMEN       FAIR      58  51  76 S10       29.60S
$$
MNZ006-009>011-018-025>026-260800-
   North Central Minnesota

CITY           SKY/WX    TMP DP  RH WIND       PRES   REMARKS
BAUDETTE       CLOUDY    59  50  72 SE12      29.61F
FLAG ISLAND    CLOUDY    57  52  82 S18       29.57F
INTL FALLS     CLOUDY    58  46  64 SE8       29.68R
WASKISH        CLOUDY    61  52  72 SE12G20   29.62F
BIG FORK       RAIN      54  50  87 SE9       29.68S
LONGVILLE      CLOUDY    54  52  94 SE5       29.67S
GRAND RAPIDS   CLOUDY    51  49  92 SE7       29.71F
CRANE LAKE     CLOUDY    55  45  67 CALM      29.72S
ORR            DRIZZLE   54  45  71 S5        29.69S
COOK           LGT RAIN  54  46  76 CALM      29.72S
WALKER         CLOUDY    58  51  79 SE7       29.64F
$$
MNZ012-019>021-037-260800-
   Northeast Minnesota

CITY           SKY/WX    TMP DP  RH WIND       PRES   REMARKS
DULUTH         LGT RAIN  52  45  77 SE5       29.74R
ELY            CLOUDY    55  43  62 SE6       29.72S
HIBBING        LGT RAIN  49  49 100 CALM      29.72S
EVELETH        RAIN      53  49  87 CALM      29.73S
DULUTH HARBOR  LGT RAIN  46  43  87 CALM      29.77R
TWO HARBORS    CLOUDY    55  46  71 CALM      29.72S
SILVER BAY     CLOUDY    55  46  71 N3        29.72S
GRAND MARAIS     N/A     57  45  64 NE5       29.75S
G MARAIS ARPRT CLOUDY    52  39  62 E6        29.78S
$$
MNZ029>031-032-039>041-046>048-054>057-064-260800-
   West Central Minnesota

CITY           SKY/WX    TMP DP  RH WIND       PRES   REMARKS
FERGUS FALLS   CLEAR     57  52  82 S9        29.60F
WHEATON        PTCLDY    52  50  93 SE6       29.63S
MORRIS         CLOUDY    54  52  94 SE6       29.62F
ALEXANDRIA     PTCLDY    58  51  78 S9        29.65S
ELBOW LAKE     FAIR      54  51  92 E6        29.63F
WADENA         MOCLDY    57  52  82 S6        29.64S
GLENWOOD       PTCLDY    57  52  82 S10       29.65F
APPLETON       PTCLDY    55  52  88 CALM      29.62S
BENSON         PTCLDY    57  52  82 S7        29.65S
ORTONVILLE     PTCLDY    54  52  94 S5        29.62S
MADISON        PTCLDY    55  55 100 S5        29.63S
WILLMAR        FAIR      55  52  88 SE5       29.67R
$$
MNZ033>034-036-042>043-049>051-058-059-260800-
   Central Minnesota

CITY           SKY/WX    TMP DP  RH WIND       PRES   REMARKS
ST CLOUD       CLOUDY    59  54  83 SE5       29.67F
SAUK CENTRE    PTSUNNY   55  51  88 SE6       29.66S
PAYNESVILLE    PTCLDY    57  51  80 SE6       29.66F
AITKIN         CLOUDY    52  50  93 CALM      29.68S
PINE RIVER     CLOUDY    55  54  94 SE7       29.70F
BRAINERD       CLOUDY    56  54  93 SE7       29.68S
STAPLES        CLOUDY    57  52  82 SE8       29.65S
LONG PRAIRIE   CLOUDY    55  52  88 SE7       29.66S
LITTLE FALLS   CLOUDY    57  52  82 SE5       29.67S
LITCHFIELD     CLOUDY    63  54  72 SE5       29.67F
BUFFALO        CLOUDY    59  52  77 SE6       29.68F
MAPLE LAKE     CLOUDY    61  55  81 SE3       29.68F
HUTCHINSON     PTCLDY    57  53  86 SE5       29.68S
$$
MNZ037-044-045-052-053-260800-
   East Central Minnesota

CITY           SKY/WX    TMP DP  RH WIND       PRES   REMARKS
PRINCETON      CLOUDY    61  55  82 E3        29.69S
MORA           CLOUDY    55  52  88 SE3       29.72S
CAMBRIDGE      CLOUDY    63  54  72 SE3       29.68S
RUSH CITY      CLOUDY    57  55  91 CALM      29.71S
MOOSE LAKE     DRIZZLE   46  45  93 CALM      29.71F
HINCKLEY       CLOUDY    54  52  94 CALM      29.71F
CLOQUET        LGT RAIN  48  43  81 E3        29.74S
MCGREGOR       CLOUDY    50  48  93 E5        29.71F
$$
MNZ071>073-080-081-089-090-097-098-260800-
   Southwest Minnesota

CITY           SKY/WX    TMP DP  RH WIND       PRES   REMARKS
MONTEVIDEO     CLOUDY    57  52  82 S6        29.63S
CANBY          MOCLDY    60  53  76 CALM      29.64S
MARSHALL       CLEAR     55  51  86 S5        29.64F
REDWOOD FALLS  CLOUDY    56  50  80 S8        29.65S
OLIVIA         CLOUDY    55  52  88 S6        29.65S
PIPESTONE      CLEAR     55  46  71 S7        29.66F
WINDOM         CLEAR     57  50  77 S8        29.68R
WORTHINGTON    CLOUDY    60  52  74 S16       29.67F
JACKSON        CLOUDY    59  50  72 S9        29.69R
TRACY          CLEAR     58  53  84 S10       29.65F
SLAYTON        CLOUDY    51  49  90 S6        29.68S
$$
MNZ065>067-074>077-082>085-091>093-260800-
   South Central Minnesota

CITY           SKY/WX    TMP DP  RH WIND       PRES   REMARKS
MANKATO        CLOUDY    58  51  78 SE9       29.69S
NEW ULM        CLOUDY    55  48  76 S5        29.67S
ST JAMES       CLEAR     59  50  72 SE13      29.69R
FAIRMONT       CLOUDY    59  51  75 S10       29.70R
GLENCOE        PTCLDY    60  55  83 SE7       29.67S
FARIBAULT      CLOUDY    61  54  77 SE3       29.70F
OWATONNA       CLOUDY    61  52  72 SE6       29.70S
WASECA         CLOUDY    59  52  77 SE8       29.71S
ALBERT LEA     PTCLDY    61  54  77 S8        29.71S
$$
MNZ078>079-086>088-094>096-260800-
   Southeast Minnesota

CITY           SKY/WX    TMP DP  RH WIND       PRES   REMARKS
ROCHESTER      CLOUDY    57  55  93 SE8       29.74F
RED WING       CLOUDY    61  54  77 CALM      29.71S
STANTON        CLOUDY    62  53  72 CALM      29.70R
DODGE CENTER   PTCLDY    57  54  88 SE7       29.72R
WINONA         CLOUDY    59  55  88 SE5       29.74F
AUSTIN         MOCLDY    59  52  77 S3        29.72S
PRESTON        CLOUDY    57  53  84 S7        29.75S
$$
ABBREVIATIONS USED IN REMARKS
   TC - TEMPERATURES IN CELSIUS
  WCI - WIND CHILL INDEX
   HX - HEAT INDEX
  VSB - VISIBILITY
$$



USA.gov is the U.S. government's official web portal to all federal, state and local government web resources and services.